Location: Épône
(48.9548°N, 1.8223°E)
Time: 09:10:50
(UTC+00:00)

Daily predictions for brighter satellites

Satellite Brightness Start Highest point End
(mag) Time Altitude Azimuth Time Altitude Azimuth Time Altitude Azimuth
Cosmos 1980 Rocket 3.0 18:00:05 10° SSE 18:04:52 29° ESE 18:09:39 10° NE
ATLAS 2AS CENTAUR R/B 4.2 18:00:10 10° W 18:07:08 36° NNW 18:13:49 10° NE
ASTEX 1 3.6 18:03:19 10° NNE 18:08:12 53° E 18:13:05 10° S
CZ-4C R/B 4.4 18:04:29 10° N 18:08:45 57° WNW 18:12:52 10° SSW
NOSS 2-2 (C) 4.3 18:04:08 10° NW 18:08:58 84° SW 18:15:50 10° SE
SKYMED 3 4.4 18:05:00 10° NNE 18:09:07 67° ESE 18:13:12 10° S
Cosmos 2369 4.3 18:05:07 10° S 18:10:13 35° ESE 18:15:21 10° NE
Cosmos 1626 2.0 18:07:27 10° N 18:11:05 82° E 18:14:42 10° SSE
USA 229 DEB 4.0 18:05:58 10° NW 18:13:19 82° NE 18:21:12 10° SE
USA 229 4.0 18:06:04 10° NW 18:13:24 82° NE 18:21:17 10° SE
Cosmos 540 Rocket 3.4 18:10:41 10° NNW 18:15:48 67° ENE 18:20:52 10° SSE
Cosmos 1674 Rocket 4.2 18:14:37 10° N 18:18:38 34° ENE 18:22:39 10° SE
YAOGAN 1 2.6 18:15:11 10° SSE 18:19:25 58° ENE 18:23:41 10° N
SKYMED 2 3.7 18:15:31 10° NNE 18:19:53 81° WNW 18:24:14 10° SSW
SL-16 R/B 3.9 18:21:27 10° ESE 18:22:41 11° E 18:23:55 10° E
SL-4 R/B 2.5 18:18:23 10° WNW 18:22:45 62° N 18:27:05 12° E
Cosmos 841 Rocket 3.7 18:17:49 10° NNW 18:22:54 52° ENE 18:27:55 10° SE
OBJECT-B 2.0 18:25:24 14° E 18:26:19 16° ENE 18:28:03 10° NNE
Cosmos 1954 Rocket 4.1 18:24:29 10° SSW 18:29:39 79° WNW 18:34:52 10° NNE
Cosmos 1844 Rocket 4.4 18:27:04 10° N 18:30:53 18° NE 18:34:20 11° ENE
Cosmos 1763 Rocket 4.1 18:26:49 10° NNW 18:31:48 60° WSW 18:36:47 10° S
Meteor 2-10 4.4 18:26:52 10° SSE 18:32:17 47° E 18:37:35 10° NNE
Cosmos 2279 Rocket 4.0 18:26:08 10° N 18:32:25 82° E 18:38:41 10° S
H-2A R/B 4.3 18:32:30 11° ENE 18:33:25 12° ENE 18:35:00 10° NE
ISS -3.7 18:30:51 10° WNW 18:34:13 75° NNE 18:36:41 17° E
Cosmos 2180 Rocket 4.5 18:29:15 10° N 18:35:29 67° ENE 18:41:44 10° SSE
Cosmos 2221 Rocket 3.6 18:31:06 10° N 18:35:36 65° ENE 18:40:07 10° SSE
Cosmos 2219 4.1 18:32:26 10° NW 18:38:02 54° WSW 18:43:37 10° S
SL-14 R/B 3.3 18:35:59 10° N 18:39:54 61° ENE 18:43:50 10° SSE
Aureole 1 4.1 18:38:18 10° SSW 18:41:17 78° ESE 18:44:39 10° NNE
Resurs 01 Rocket 3.4 18:42:04 13° ENE 18:43:01 14° ENE 18:45:18 10° NNE
HJ-1C 3.2 18:40:11 10° SSE 18:43:18 83° WSW 18:46:26 10° NNW
Cosmos 2360 4.4 18:41:12 10° SSW 18:46:56 78° WNW 18:52:42 10° NNE
Cosmos 1805 3.1 18:43:59 10° S 18:47:51 77° E 18:51:45 10° NNE
Cosmos 1378 Rocket 3.5 18:44:14 10° N 18:48:37 65° ENE 18:52:57 10° SSE
Cosmos 2263 Rocket 2.2 18:43:08 10° NNW 18:48:49 67° ENE 18:54:19 11° SE
Cosmos 1741 Rocket 4.1 18:45:36 10° S 18:50:46 57° ESE 18:55:56 10° NNE
USA 186 2.5 18:49:21 21° ESE 18:50:54 34° ENE 18:53:56 10° N
IRIDIUM 114 4.4 18:46:38 10° SSE 18:51:44 57° E 18:56:51 10° N
USA 215 3.8 18:45:36 10° ENE 18:51:59 56° NNW 18:58:19 10° W
IGS 5A 3.9 18:53:35 18° SE 18:56:11 39° ENE 19:00:03 10° N
Cosmos 2082 4.1 18:52:01 10° NNW 18:57:42 68° WSW 19:03:23 10° SSE
Cosmos 1733 Rocket 3.2 18:55:28 10° SSW 18:59:53 77° W 19:04:22 10° N
Cosmos 1766 3.3 18:56:33 10° S 19:00:19 51° E 19:04:10 10° NNE
IRIDIUM 103 4.3 18:55:41 10° S 19:00:51 68° E 19:06:03 10° N
ARGOS Delta rocket 4.4 18:55:29 10° N 19:00:51 71° WNW 19:05:58 10° SSW
Meteor 2-14 Rocket 4.3 18:55:04 10° S 19:01:06 73° E 19:07:09 10° NNE
Cosmos 1242 Rocket 3.1 18:59:07 10° SSW 19:02:38 58° WNW 19:06:10 10° N
Cosmos 1814 Rocket 4.1 18:58:11 10° NNW 19:03:25 58° ENE 19:07:02 19° SE
Okean-O 2.9 19:00:42 20° SE 19:03:28 45° ENE 19:07:42 10° N
Cosmos 1726 1.9 19:01:57 10° S 19:05:35 76° E 19:09:15 10° NNE
Resurs 1-3 4.1 19:05:38 26° ESE 19:07:31 40° ENE 19:11:38 10° N
Cosmos 1697 Rocket 3.5 19:03:18 10° SW 19:08:47 54° NW 19:14:20 10° NNE
CSL-04 Debris 4.1 19:06:22 10° SSE 19:11:45 70° ENE 19:17:08 10° N
Cosmos 2084 3.3 19:11:15 10° SW 19:15:04 75° NW 19:18:22 13° NE
USA-17 4.5 19:12:38 10° NW 19:15:48 62° NE 19:16:45 43° ESE
IRS-1C Rocket 4.1 19:12:09 19° SE 19:15:52 59° ENE 19:21:03 10° N
Meteor 2-21 Rocket 4.3 19:10:57 10° S 19:16:57 68° E 19:22:58 10° NNE
IRIDIUM 106 4.3 19:13:55 10° S 19:19:08 86° W 19:24:24 10° N
Cosmos 489 Rocket 4.4 19:16:21 10° S 19:22:35 63° ESE 19:28:51 10° NNE
SPOT 1/Viking Rocket 4.3 19:22:41 31° E 19:23:41 33° ENE 19:28:16 10° N
Cosmos 1470 3.7 19:28:31 30° NE 19:28:31 30° NE 19:30:52 10° NNE
CZ-4 R/B 2.9 19:25:03 10° SSW 19:28:57 38° W 19:32:53 10° NNW
CRYOSAT 2 4.3 19:29:50 25° SSE 19:32:42 68° E 19:37:34 10° N
Cosmos 2285 Rocket 3.9 19:26:34 10° NNW 19:32:57 88° ENE 19:37:15 22° SSE
MINOTAUR IV R/B 4.4 19:28:48 10° SSW 19:33:19 75° ESE 19:37:49 10° NNE
Meteor 2-16 Rocket 4.3 19:28:41 10° S 19:34:47 78° E 19:40:58 10° NNE
Timation 2 Rocket 4.4 19:28:28 10° NW 19:34:52 61° WSW 19:40:08 14° S
Gbstr 26 Del rocket 4.5 19:27:15 10° SW 19:34:52 65° SSE 19:40:02 24° ENE
Meteor 1-12 Rocket 4.3 19:29:02 10° S 19:35:02 87° E 19:41:06 10° NNE
deb Chang Zheng 4 3.5 19:35:01 51° E 19:35:14 52° ENE 19:39:16 10° N
Okean O Rocket 3.5 19:33:45 10° SSW 19:37:32 29° W 19:41:23 10° NW
BREEZE M DEB (TANK) 3.9 19:34:28 10° SW 19:38:08 24° S 19:38:08 24° S
SJ-6B 2.9 19:37:27 32° S 19:39:00 67° WSW 19:42:46 10° NNW
Cosmos 2322 Rocket 4.3 19:43:56 11° NE 19:43:56 11° NE 19:44:10 10° NE
Cosmos 2026 Rocket 3.9 19:33:35 10° S 19:39:28 57° E 19:45:25 10° NNE
BREEZE-M DEB (TANK) 4.1 19:37:29 10° W 19:39:39 25° SSW 19:39:57 25° S
JB-3 4.2 19:37:26 10° NNE 19:41:32 73° ESE 19:42:19 55° SSE
CSL-04 Rocket 3.7 19:38:43 17° S 19:42:53 76° WSW 19:48:18 10° NNW
Cosmos 1553 Rocket 4.4 19:37:07 10° N 19:43:09 45° ENE 19:44:28 40° ESE
Cosmos 1908 Rocket 3.6 19:38:51 10° SSW 19:43:11 76° W 19:47:32 10° N
Nadezhda 4 Rocket 4.3 19:39:49 10° SSW 19:46:07 70° W 19:52:27 10° N
MetOp-A 3.5 19:48:59 56° NNE 19:48:59 56° NNE 19:52:17 10° N
Cosmos 1980 Rocket 3.0 19:43:05 10° SW 19:48:35 53° NW 19:54:06 10° NNE
Cosmos 968 Rocket 3.4 19:45:16 10° S 19:50:28 66° ESE 19:55:42 10° NNE
Cosmos 1782 Rocket 3.4 19:50:50 69° ENE 19:50:50 69° ENE 19:54:59 10° NNE
Landsat 5 4.1 19:50:09 10° N 19:54:37 62° WNW 19:59:01 10° SSW
OBJECT-B 2.9 19:56:15 19° W 19:56:18 19° W 19:58:15 10° NW
Meteor 1-24 Rocket 3.5 19:53:16 10° NNW 19:58:37 83° W 20:00:31 41° S
Landsat 7 3.9 19:58:02 44° S 19:59:30 74° WSW 20:04:14 10° NNW
ATLAS 2AS CENTAUR R/B 4.5 19:54:14 10° NW 20:00:13 25° N 20:05:21 12° NE
Cosmos 1437 Rocket 3.0 20:00:08 59° WSW 20:00:26 61° WNW 20:04:09 10° N
Spot 2 4.3 20:01:39 56° NNE 20:01:39 56° NNE 20:05:11 10° N
Cosmos 2278 3.9 19:56:09 10° SW 20:01:50 71° WNW 20:07:32 10° NNE
Ariane Rocket 3.5 20:02:33 43° NE 20:02:33 43° NE 20:06:52 10° N
SL-4 R/B 2.2 19:57:53 10° WNW 20:02:26 74° SSW 20:02:29 74° SSW
SL-16 R/B 2.1 20:00:04 10° SSW 20:05:40 67° ESE 20:11:18 10° NNE
Cosmos 1570 Rocket 4.3 20:01:58 10° NNW 20:07:11 64° WSW 20:08:41 44° SSW
Cosmos 2292 Rocket 4.5 20:01:55 10° SSW 20:07:38 57° W 20:11:57 10° N
H-2A R/B 2.8 20:08:58 59° NNW 20:08:58 59° NNW 20:12:12 10° NNW
Meteor 1-22 Rocket 4.1 20:03:37 10° SSW 20:08:59 80° WNW 20:14:35 10° N
ISS -1.6 20:07:47 10° W 20:09:34 23° WSW 20:09:34 23° WSW
MOS 1 4.1 20:10:30 65° SE 20:11:21 81° ENE 20:17:02 10° NNW
Cosmos 1025 Rocket 3.3 20:11:04 10° NNW 20:14:56 65° NW 20:14:56 65° NW
Cosmos 1844 Rocket 2.6 20:10:10 10° NNW 20:15:51 70° ENE 20:16:00 69° ENE
Cosmos 2278 Rocket 4.0 20:13:32 10° N 20:17:13 17° NE 20:17:26 17° NE
Resurs 01 Rocket 2.0 20:19:37 62° NNW 20:19:37 62° NNW 20:23:20 10° NNW
Cosmos 1975 Rocket 3.5 20:16:32 10° NNW 20:20:46 59° W 20:20:46 59° W
Terra 3.8 20:23:49 18° NNE 20:23:49 18° NNE 20:25:35 10° N
Cosmos 1092 Rocket 4.3 20:15:50 10° SSW 20:22:06 65° WNW 20:28:22 10° N
SPOT 5 4.3 20:32:25 28° NNE 20:32:25 28° NNE 20:35:00 10° N
Cosmos 2263 Rocket 4.2 20:27:53 10° NW 20:32:14 23° WSW 20:36:03 12° SSW
Cosmos 1844 3.7 20:28:39 10° NNW 20:33:42 71° N 20:33:42 71° N
USA 215 4.1 20:31:46 31° NE 20:34:23 44° N 20:40:31 10° WNW
BREEZE-M DEB (TANK) 4.4 20:21:07 10° W 20:36:27 60° SSW 20:37:07 57° S
S3M 4.1 20:45:23 10° N 20:50:55 69° N 20:50:55 69° N
USA 281 3.3 21:06:58 66° N 21:06:58 66° N 21:12:43 10° NNW
Gbstr 26 Del rocket 4.5 21:14:25 10° W 21:22:28 78° NNW 21:22:31 77° N
Cosmos 2322 Rocket 3.7 21:25:40 29° N 21:25:40 29° N 21:28:37 10° NNE
SL-16 R/B 4.0 21:45:27 10° WSW 21:50:15 27° NW 21:55:05 10° NNE
ATLAS 2AS CENTAUR R/B 3.9 21:46:39 10° NW 21:52:45 36° NNE 21:52:45 36° NNE
Terra 4.4 22:02:43 17° NNW 22:02:43 17° NNW 22:03:54 10° NNW
Cosmos 2278 Rocket 4.0 21:56:47 10° NNW 21:59:16 26° NNW 21:59:16 26° NNW
USA 215 4.3 22:19:06 40° NW 22:19:06 40° NW 22:23:17 10° NW
Cosmos 1943 Rocket 4.4 22:12:08 10° NNW 22:14:00 19° N 22:14:00 19° N
